SGDC (42692 NORAD) Tracking and Keplerian Element Data

This shows tracking and keplerian element data for the satellite.

Feedback or suggestion? Click here.




ElementValue
Catalog42692
NameSGDC
Epoch Orbit1978
Epoch Day269.19408967
Epoch Year2022
RAAN80.3985
Inclination0.0373
Eccentricity0.0002164
Argument of Perigee106.5884
Mean Anonmoly173.0339
Mean Motion1.00272623
Decay Rate-2.47E-06
L11 42692U 17023B 22269.19408967 -.00000247 00000+0 00000+0 0 9993
L22 42692 0.0373 80.3985 0002164 106.5884 173.0339 1.00272623 19780

Live tracking and technical data element details for SGDC (NORAD 42692). SGDC can be tracked NOW for your location showing map with azimuth and elevation plus other details from your city location.

Track the satellite on the map from your city or location and see movement details for azimuth, elevation, latitude, longitude, range, height, and movement on the map or in text.







IsCatalogInMostPopularTable: catalog: 42692, numindb: 612
Update: records affected: 1



GetName: 42692 SGDC

Hit Count: updated at: Fri, 30 Sep 2022 04:23:06 GMT